This is the latest recevied weather packets stored in our database for station/object KC7YCE. If no packets are shown the sender has not sent any weather packets the latest 10 day(s).
| Time | Temp. | Humidity | Pressure | Rain* | Wind** | Luminosity | Snow |
|---|---|---|---|---|---|---|---|
| 1777772796 | 11.11° C | 29% | 1022.2 hPa | 0 mm | - | - | - |
| 1777772196 | 11.11° C | 27% | 1022.2 hPa | 0 mm | - | - | - |
| 1777771596 | 11.67° C | 26% | 1022.2 hPa | 0 mm | - | - | - |
| 1777770395 | 12.78° C | 24% | 1022.1 hPa | 0 mm | - | - | - |
| 1777769800 | 13.33° C | 20% | 1022.1 hPa | 0 mm | - | - | - |
| 1777769197 | 13.89° C | 20% | 1022.1 hPa | 0 mm | - | - | - |
| 1777768596 | 14.44° C | 20% | 1022.1 hPa | 0 mm | - | - | - |
| 1777767996 | 14.44° C | 20% | 1022.1 hPa | 0 mm | - | - | - |
| 1777767395 | 14.44° C | 21% | 1022 hPa | 0 mm | - | - | - |
| 1777766195 | 15° C | 20% | 1022.1 hPa | 0 mm | - | - | - |
| 1777765565 | 15° C | 19% | 1022.1 hPa | 0 mm | - | - | - |
| 1777764335 | 15.56° C | 21% | 1022.2 hPa | 0 mm | - | - | - |
| 1777763705 | 15.56° C | 20% | 1022.1 hPa | 0 mm | - | - | - |
| 1777763105 | 15.56° C | 21% | 1022.1 hPa | 0 mm | - | - | - |
| 1777762505 | 15.56° C | 20% | 1022.3 hPa | 0 mm | - | - | - |
| 1777761905 | 16.11° C | 20% | 1022.3 hPa | 0 mm | - | - | - |
| 1777760705 | 15.56° C | 19% | 1022.4 hPa | 0 mm | - | - | - |
| 1777759505 | 16.11° C | 17% | 1022.8 hPa | 0 mm | - | - | - |
| 1777758905 | 16.67° C | 17% | 1022.9 hPa | 0 mm | - | - | - |
| 1777758306 | 16.11° C | 18% | 1023.1 hPa | 0 mm | - | - | - |
| 1777757705 | 16.11° C | 18% | 1023 hPa | 0 mm | - | - | - |
| 1777757104 | 15.56° C | 19% | 1023.2 hPa | 0 mm | - | - | - |
| 1777756504 | 16.11° C | 19% | 1023.3 hPa | 0 mm | - | - | - |
| 1777752844 | 15° C | 19% | 1023.7 hPa | 0 mm | - | - | - |
| 1777751614 | 15° C | 21% | 1023.8 hPa | 0 mm | - | - | - |
* Rain latest hour (hover to see other rain measurements)
** Current wind speed in m/s (hover to see current wind gust speed)